Location: Dennehotso
(36.8461°N, 109.8435°W)
Time: 13:54:51
(UTC+00:00)

Envisat - Pass Details

Date: 08 March 2021
Orbit: 764 x 766 km, 98.1° (Epoch: 17 April)

Event Time Altitude Azimuth Distance (km) Brightness Sun altitude
Rises 11:56:30 0° 29° (NNE) 3,237 6.8 -21.5°
Reaches altitude 10° 11:59:21 10° 44° (NE) 2,306 6.2 -20.9°
Maximum altitude 12:03:12 22° 94° (E) 1,644 5.6 -20.1°
Drops below altitude 10° 12:07:01 10° 144° (SE) 2,293 5.8 -19.4°
Sets 12:09:49 0° 159° (SSE) 3,214 6.4 -18.8°
